Dewpoint
44 42 40 40 42 40 39 38 38 33 29 29 25 24 20 19 18 19 19 20 21 17 15 15 15 15 15 15 15 15 20 24 27 30 33 30 37 42 44 46 48 49 51 52 52 51 53 55 56 57 57 57 57 57 57 57 57 58 59 58 59 60 61 61 61 61 61 60 60 59 60 59 60 61 61 61 61 62 62 62 62 61 61 61 60 60
44 42 41 42 42 42 39 37 35 32 29 27 25 23 20 24 18 18 17 22 23 17 17 16 15 16 15 15 15 16 19 19 22 26 28 27 25 32 38 41 42 44 46 42 44 48 50 53 54 56 57 56 56 57 57 57 58 58 58 58 59 60 60 61 62 61 61 61 61 61 60 59 60 61 60 61 62 62 62 62 61 61 61 60 60 59
41 40 42 41 41 39 35 34 33 32 30 28 24 23 22 21 22 19 20 20 20 18 16 18 15 15 15 15 15 15 17 18 20 23 25 25 24 22 26 33 37 37 38 38 41 45 48 50 52 55 56 57 58 58 57 58 58 58 58 59 59 60 60 61 61 61 61 60 59 60 57 61 56 58 62 62 62 62 63 62 62 61 61 61 61 61
37 40 43 38 37 36 33 31 28 27 25 31 24 21 20 24 21 19 18 22 20 17 16 17 15 15 16 16 16 15 15 16 20 20 22 23 23 22 21 22 28 32 35 35 37 40 45 48 51 53 55 56 57 57 57 57 57 58 58 58 59 59 60 61 61 59 61 60 59 58 57 59 59 58 57 60 60 61 61 61 61 61 61 60 61 61
39 42 39 37 37 36 32 31 30 30 31 28 26 23 20 21 20 17 16 19 20 19 20 16 18 15 15 15 15 15 17 16 17 21 20 22 25 24 26 25 23 22 26 31 33 36 41 45 49 52 54 55 56 57 57 57 57 58 58 58 59 59 59 60 59 60 59 58 57 56 56 57 57 57 58 59 59 60 60 60 60 61 60 60 61 61
36 37 36 36 36 36 33 30 31 31 29 27 27 22 19 18 18 19 20 19 18 19 22 19 15 15 18 17 15 15 16 16 16 16 16 17 19 22 21 22 23 27 26 27 29 32 37 42 47 49 51 53 55 56 57 57 58 58 58 58 58 59 59 60 59 59 59 59 60 59 60 59 58 59 58 59 59 57 59 61 59 59 60 61 60 60
41 37 36 35 34 35 34 34 32 29 28 25 24 23 19 17 20 23 22 22 19 18 20 17 15 16 19 16 14 14 15 15 15 18 17 16 16 19 21 22 21 22 22 26 29 32 36 39 44 47 50 52 54 56 56 56 57 57 58 57 58 59 59 59 58 59 58 59 59 60 61 60 60 60 58 58 58 60 57 57 58 59 59 60 60 59
37 36 37 37 35 34 33 33 32 27 25 23 26 23 19 16 20 23 24 23 22 26 24 18 19 15 15 15 17 15 12 12 12 13 14 16 17 17 17 19 21 22 21 24 25 29 34 37 40 44 49 51 54 55 54 55 55 56 57 57 57 58 58 58 58 58 59 60 59 59 59 58 59 59 58 56 57 55 55 57 57 57 57 57 58 58
35 35 37 36 35 34 33 34 32 26 25 24 27 27 24 16 22 26 25 22 25 18 19 20 22 13 14 15 16 13 10 9 9 10 12 13 15 16 18 19 20 21 22 23 25 26 30 34 37 42 46 50 51 51 53 54 54 55 56 56 56 57 57 57 58 58 59 59 59 59 59 58 57 57 55 53 52 54 55 57 56 57 56 55 54 54
34 36 37 37 35 34 34 33 30 27 25 28 32 31 30 30 29 27 23 24 20 15 17 17 16 15 14 20 16 14 9 8 7 7 8 10 12 14 16 18 20 21 23 26 25 25 29 32 35 40 42 45 49 49 49 49 50 52 54 55 55 56 57 57 57 58 58 59 58 59 58 58 56 54 53 55 55 55 56 56 55 55 54 53 52 51
34 39 38 36 35 34 35 34 33 28 25 32 29 28 30 29 26 25 25 22 16 15 17 19 17 14 13 17 13 14 15 10 9 9 8 8 13 12 14 16 21 22 24 28 31 32 32 34 36 37 43 44 43 41 42 46 49 51 53 54 55 56 56 56 57 57 58 58 58 59 58 58 56 55 55 55 55 55 55 55 54 53 52 51 51 50
33 34 34 34 34 33 36 32 35 33 34 30 26 27 24 25 26 24 24 20 16 15 17 16 17 13 14 15 16 14 11 10 11 11 11 10 8 11 15 16 18 21 25 30 34 35 37 38 39 38 40 41 42 40 41 43 44 48 51 53 54 53 54 55 56 57 57 58 58 58 58 57 56 56 56 57 55 55 55 55 53 51 50 49 49 49
31 33 35 33 36 31 33 33 33 36 33 31 32 28 23 22 20 18 16 15 16 15 13 16 16 12 12 14 12 12 10 10 10 10 10 10 8 11 14 18 22 27 31 33 35 37 38 40 40 40 40 40 42 43 41 42 43 45 48 51 53 54 53 54 55 56 56 57 57 58 57 57 56 57 57 57 56 56 55 54 52 51 50 49 48 48
31 34 33 32 32 32 31 30 30 31 34 31 26 24 23 19 16 16 15 10 12 16 14 14 17 12 15 12 15 14 14 13 12 11 13 11 12 14 16 19 24 31 35 36 38 39 39 40 41 41 41 41 42 42 42 41 43 44 47 48 52 54 53 54 55 56 56 56 57 57 57 58 56 57 57 57 57 56 55 54 52 51 50 50 49 47
26 26 29 31 30 32 30 31 31 36 33 29 29 27 24 21 15 13 10 14 15 18 13 16 11 14 12 14 17 15 15 17 17 16 17 18 17 18 24 31 32 34 35 37 39 39 40 40 40 41 41 41 40 42 42 42 44 45 46 48 51 52 51 53 55 55 56 56 56 57 57 58 57 57 57 57 57 55 54 53 53 51 50 49 47 47
28 27 28 31 30 31 30 31 31 31 31 31 30 30 24 23 24 15 16 13 9 7 7 9 15 18 16 16 16 15 16 16 18 22 28 29 31 34 35 34 33 34 37 38 39 39 38 38 37 39 40 40 41 44 44 44 45 46 48 49 51 52 51 52 53 55 56 55 56 56 57 57 56 56 56 54 53 54 54 52 51 49 48 47 44 43
27 27 29 29 30 30 31 29 30 30 27 28 25 24 25 26 23 20 17 15 12 14 10 10 13 16 16 12 11 16 14 13 14 18 24 28 31 34 34 34 35 37 38 38 39 39 39 37 37 39 40 40 42 44 45 45 46 47 49 50 51 51 51 51 53 55 55 54 54 55 56 56 55 54 54 53 52 51 49 49 48 47 45 44 43 41
28 27 28 29 27 28 31 30 30 29 31 26 24 27 26 27 28 18 17 14 11 12 13 10 10 11 8 15 17 9 11 10 10 12 14 22 31 32 32 33 35 37 38 38 38 37 38 38 38 38 39 42 43 45 46 46 47 48 50 50 51 51 51 51 52 53 53 53 53 53 54 54 54 54 53 52 50 48 47 45 44 43 42 42 40 39
29 23 25 27 28 31 32 30 29 31 31 26 29 29 24 21 20 19 17 10 7 6 8 9 13 11 10 12 10 6 8 7 7 9 11 14 22 29 30 33 36 35 36 38 38 38 37 38 38 39 40 40 43 45 47 47 48 48 50 50 51 51 51 51 51 51 51 52 52 52 53 52 52 51 50 49 47 46 45 44 43 42 41 39 38 37
28 23 24 27 28 30 29 28 26 27 30 30 27 23 25 21 21 20 19 16 14 9 3 13 8 10 15 13 9 6 6 9 7 7 10 12 15 25 30 33 35 36 37 38 38 38 37 37 37 38 39 40 42 45 47 47 48 48 50 50 50 50 50 50 50 50 51 50 50 50 50 49 50 48 47 46 45 45 44 42 41 39 39 38 36 36
27 27 19 26 29 28 25 27 26 26 25 23 24 23 19 20 25 22 18 17 15 8 5 4 5 15 15 15 10 7 6 6 6 7 14 17 19 25 30 33 35 36 37 37 38 38 38 37 36 35 36 37 39 43 46 47 48 48 48 49 49 49 49 49 49 49 49 48 48 48 48 46 46 45 44 44 44 43 41 40 39 39 37 34 34 33
25 25 24 26 25 25 25 27 29 28 27 26 25 24 22 20 18 17 18 12 10 8 7 1 10 15 18 16 11 8 7 6 16 14 15 16 17 23 29 33 35 37 37 37 37 37 37 36 35 35 35 34 36 40 44 46 47 48 47 48 48 48 48 48 48 48 47 47 47 47 45 44 44 43 43 42 41 40 39 38 36 34 34 34 32 33
27 27 26 22 25 26 27 30 31 30 29 27 25 25 23 21 20 18 16 19 11 10 12 12 1 12 14 14 14 11 10 14 15 20 18 19 19 20 25 32 34 35 36 37 36 36 35 35 35 35 36 36 37 40 43 44 46 47 46 46 46 47 46 47 46 46 46 46 45 43 43 42 41 41 40 40 38 37 36 35 34 34 34 33 32 31
33 23 25 24 25 28 29 31 30 30 30 29 28 27 23 20 20 19 19 19 18 12 10 6 6 15 20 22 21 18 17 20 23 23 22 20 20 21 24 30 33 34 34 34 34 34 34 34 34 34 35 36 36 38 41 43 45 45 45 45 44 44 44 43 43 44 44 43 42 41 40 40 39 39 39 38 37 35 34 33 33 33 33 32 32 31
23 23 26 20 21 25 27 27 28 28 29 27 25 27 27 26 25 23 20 15 11 18 17 12 11 8 20 21 21 20 18 16 15 16 22 21 20 23 25 29 32 33 34 34 34 34 33 33 34 36 36 36 35 36 39 42 43 43 43 42 43 42 41 40 40 41 41 40 39 39 39 38 38 38 38 36 35 34 33 33 32 32 32 31 31 30
28 26 26 23 21 21 21 22 23 25 26 28 27 25 26 25 23 18 17 12 13 16 15 12 12 15 16 16 8 8 12 13 16 18 19 21 20 21 26 31 33 33 34 34 33 33 35 35 35 35 35 36 35 36 38 39 40 40 40 40 40 40 39 38 39 39 39 39 39 38 37 37 37 37 36 35 34 33 33 32 32 31 31 31 30 29
26 28 27 26 24 24 25 26 29 29 27 26 26 25 24 26 24 27 26 17 15 16 13 15 16 16 8 6 6 9 11 14 14 17 18 22 25 26 27 32 34 34 34 34 34 34 33 34 35 36 36 36 35 35 35 37 38 38 38 38 37 38 39 38 38 38 39 38 38 37 37 37 36 36 35 34 33 32 32 31 31 30 30 29 29 28
28 25 26 27 26 25 26 27 29 28 26 27 27 26 26 25 25 24 22 20 22 15 13 17 20 14 13 15 13 12 12 14 18 19 17 16 20 26 29 32 36 33 33 33 34 35 35 36 35 35 35 34 35 34 33 34 36 38 38 38 37 37 37 37 38 38 38 38 37 37 36 36 35 34 33 33 32 32 31 30 30 29 28 28 28 27
24 24 26 26 26 25 26 27 28 28 27 27 27 27 26 26 25 25 24 24 21 18 17 19 20 15 15 14 13 12 11 12 13 14 17 18 26 31 31 32 33 35 35 35 36 36 36 36 36 36 36 35 34 34 34 34 34 34 35 36 36 36 37 36 37 37 37 37 37 36 35 34 33 32 32 31 31 30 30 29 28 28 28 27 27 27
23 23 25 25 25 25 24 27 28 27 27 27 28 28 27 27 26 25 25 26 25 22 23 21 21 19 18 15 14 14 20 20 20 23 26 27 28 31 31 32 33 34 35 36 37 37 37 37 37 37 37 36 35 35 34 34 35 35 35 35 35 36 35 36 37 36 36 36 36 34 33 33 32 31 31 30 30 29 29 28 28 27 26 26 26 26
23 21 27 24 20 22 24 25 26 27 26 25 27 28 28 28 27 27 26 26 26 25 25 24 22 22 22 20 18 20 21 24 20 18 16 24 30 32 33 33 33 34 35 36 37 37 37 37 37 37 37 37 36 36 35 35 35 35 35 34 34 34 34 34 35 35 35 35 34 33 32 31 31 30 30 29 29 28 27 27 26 26 25 25 25 24
24 19 23 22 20 14 22 23 23 24 24 24 25 27 27 27 26 26 26 26 25 24 24 22 22 21 21 22 24 22 22 21 20 19 19 21 29 32 32 31 32 33 34 35 36 36 37 37 37 37 37 37 37 36 36 36 35 35 35 34 34 33 32 33 33 34 33 33 32 32 31 30 30 29 29 28 28 27 26 26 25 25 24 24 24 24
24 21 19 19 20 13 20 23 23 22 20 20 22 24 27 27 27 27 27 27 26 26 24 23 22 21 20 24 20 20 20 21 21 21 21 21 24 29 30 30 30 32 33 35 36 36 37 37 37 37 37 37 37 36 36 36 35 35 35 34 33 32 32 33 33 33 32 32 31 31 30 29 29 28 28 27 27 26 25 25 24 24 24 23 23 22
25 24 21 24 19 17 20 22 24 22 17 18 23 26 26 26 27 26 26 27 27 26 24 24 24 22 22 21 21 20 20 21 21 22 23 21 21 25 30 31 31 31 32 34 35 36 37 37 37 37 37 37 37 36 35 35 35 35 34 33 33 33 33 33 32 32 32 31 31 30 29 29 28 27 27 26 25 25 24 24 23 23 23 23 22 21
26 26 24 23 20 21 20 22 20 17 18 23 27 27 25 24 25 26 26 25 25 27 27 25 25 24 22 22 22 22 22 22 25 25 24 23 23 23 24 27 29 31 32 32 34 36 36 37 37 35 35 36 36 34 34 34 34 33 33 33 33 33 32 32 32 31 31 31 30 29 28 28 27 26 26 25 25 24 24 23 23 23 22 22 21 21
26 24 24 20 22 21 19 20 16 17 22 25 26 25 25 23 23 25 25 25 24 24 26 25 25 24 23 22 22 25 25 25 27 27 27 27 25 24 25 25 26 29 30 31 32 34 36 36 37 37 37 34 35 35 35 35 34 34 33 33 33 32 32 32 32 31 30 30 29 29 28 27 26 25 25 24 24 23 23 23 22 22 21 20 20 20
25 26 24 19 20 19 19 20 19 21 21 22 23 24 24 23 23 23 22 21 22 24 24 24 24 25 25 25 25 25 27 26 25 26 27 27 28 27 26 25 26 28 30 31 32 33 35 36 36 36 34 34 35 35 35 34 34 34 33 32 32 32 32 31 31 30 30 30 29 28 27 26 25 25 25 24 23 23 23 22 21 20 20 20 20 20
26 25 22 22 19 20 20 15 14 15 15 19 25 27 26 26 25 27 22 21 25 23 24 24 24 24 26 25 25 26 26 24 23 22 25 27 28 30 28 29 28 28 29 30 30 32 32 33 33 33 35 34 34 34 34 33 34 33 32 32 32 31 31 31 31 30 30 30 29 27 26 25 25 25 24 24 23 23 22 21 20 20 20 20 19 19
26 25 25 22 22 18 16 18 17 15 18 22 25 27 28 28 28 27 21 21 21 23 24 24 24 24 24 25 25 28 26 24 24 22 25 27 27 28 28 28 28 28 28 29 30 31 32 33 34 34 34 34 34 34 34 33 33 33 33 32 32 32 31 31 31 30 30 29 28 26 25 25 25 25 24 24 23 22 22 21 20 20 19 19 19 18
24 21 24 22 19 22 21 17 18 16 16 22 26 27 27 29 28 25 17 19 23 24 25 25 24 25 25 25 26 26 25 24 23 23 25 28 28 29 29 28 28 29 29 29 30 31 32 32 33 33 34 34 35 33 33 33 34 33 33 32 32 32 32 32 31 30 30 28 27 26 25 25 25 24 24 24 22 22 21 20 18 18 18 17 17 17
22 18 22 21 22 22 24 16 12 19 23 24 26 26 29 29 25 21 17 21 23 23 25 26 25 26 26 26 27 26 26 25 25 26 29 30 30 30 30 29 30 30 30 30 30 32 32 33 34 35 35 34 34 33 33 34 34 33 33 32 32 32 32 32 31 29 29 27 26 25 25 24 24 23 23 22 21 21 19 19 19 18 17 16 16 17
17 18 16 17 21 22 22 19 20 17 23 27 25 29 29 25 17 19 20 26 26 25 26 27 26 27 27 27 27 26 26 27 29 29 29 30 30 30 30 30 29 30 30 29 30 30 31 31 32 32 31 31 33 33 33 33 33 33 32 32 32 32 30 30 29 28 27 26 25 24 24 23 22 21 21 20 19 19 18 18 17 17 16 16 16 16
22 22 21 21 20 16 16 16 12 16 21 29 28 25 27 22 24 25 26 26 27 27 26 27 28 28 28 27 28 29 27 28 28 29 29 29 30 30 30 29 29 29 30 30 31 30 30 31 31 31 30 30 32 33 33 33 33 33 32 32 32 30 29 28 27 26 26 25 23 22 21 20 19 19 19 18 19 18 17 17 16 16 16 16 16 17
24 20 15 19 24 20 21 19 19 23 27 29 26 25 26 28 27 29 26 24 27 27 27 27 27 28 29 28 28 28 29 28 29 29 29 29 29 29 28 28 28 28 28 28 29 29 28 29 29 29 28 29 30 31 32 33 33 32 32 32 28 27 26 26 25 25 24 23 22 20 19 19 18 18 18 18 18 17 16 16 16 16 16 16 15 15
25 24 24 22 22 22 22 23 24 27 27 29 28 28 26 28 29 30 28 27 26 26 28 28 27 28 29 29 28 28 28 29 29 29 29 29 29 29 29 28 27 27 27 27 28 27 27 29 28 28 27 28 28 29 30 30 32 31 31 27 26 26 25 24 24 23 22 21 20 19 17 17 17 16 16 17 17 16 16 15 15 15 15 16 15 15
24 23 23 27 24 24 23 24 26 24 26 27 27 28 28 27 27 28 28 26 28 29 29 28 28 29 29 29 28 28 28 27 29 28 28 27 28 27 27 26 25 25 25 25 25 25 25 27 26 27 27 26 27 27 27 28 29 31 29 24 25 25 25 24 23 22 21 20 19 17 16 16 15 15 15 15 16 16 16 15 15 14 15 15 15 14
21 23 23 23 23 23 22 25 25 26 26 28 27 28 27 26 28 28 28 28 28 29 29 29 29 28 29 29 29 28 29 28 28 28 28 28 27 27 26 25 25 24 25 24 24 24 26 26 27 25 26 26 25 25 26 26 27 26 24 24 24 24 23 23 22 21 19 18 17 16 16 16 15 15 15 15 14 15 16 16 15 15 14 14 14 14
24 25 23 22 24 24 22 25 26 25 25 26 27 28 28 28 28 28 28 29 29 28 28 28 28 28 28 28 28 29 28 28 28 28 27 27 27 26 25 25 25 24 21 21 21 21 22 24 25 24 24 25 23 23 23 23 21 22 23 23 23 23 22 22 21 20 19 17 16 16 16 16 16 15 15 14 15 15 15 16 16 14 13 13 13 12
25 27 24 26 26 25 24 25 24 26 26 27 26 27 28 29 29 28 28 29 29 29 28 28 27 28 28 28 27 28 29 28 28 28 28 27 25 25 25 24 23 22 21 22 20 20 22 21 21 21 22 22 19 19 19 18 19 21 22 22 22 22 22 21 20 19 17 16 15 15 15 15 15 15 15 14 14 14 14 15 15 14 14 13 15 13
26 25 25 26 20 23 24 25 26 25 22 27 28 30 29 28 29 29 28 28 28 29 28 29 27 25 26 26 26 27 29 29 26 26 26 26 26 25 24 23 21 20 19 19 18 17 17 17 18 19 19 18 16 16 16 16 17 18 19 21 21 22 22 20 18 17 16 15 15 15 15 14 14 13 13 13 13 13 12 15 17 15 14 13 17 17
24 26 24 24 24 23 25 27 27 26 26 27 27 29 29 28 29 29 29 28 27 27 28 29 28 27 27 26 24 27 26 28 26 25 26 25 25 24 23 22 21 20 20 18 18 17 17 17 16 16 16 15 14 14 14 15 15 15 16 18 19 21 21 19 18 17 16 15 15 15 14 13 13 12 12 12 12 12 12 15 17 16 16 17 20 20